Year,Month,Day,Hour,Minute,Value (Times are PST for temperature in C)
2006,12,15,00,00,8.10
2006,12,15,00,01,8.10
2006,12,15,00,02,8.10
2006,12,15,00,03,8.10
2006,12,15,00,04,8.10
2006,12,15,00,05,8.10
2006,12,15,00,06,8.00
2006,12,15,00,07,8.00
2006,12,15,00,08,8.00
2006,12,15,00,09,8.00
2006,12,15,00,10,8.00
2006,12,15,00,11,8.00
2006,12,15,00,12,8.00
2006,12,15,00,13,8.00
2006,12,15,00,14,8.00
2006,12,15,00,15,8.00
2006,12,15,00,16,8.00
2006,12,15,00,17,7.90
2006,12,15,00,18,7.90
2006,12,15,00,19,7.90
2006,12,15,00,20,7.90
2006,12,15,00,21,7.90
2006,12,15,00,22,7.90
2006,12,15,00,23,7.90
2006,12,15,00,24,8.00
2006,12,15,00,25,8.00
2006,12,15,00,26,8.00
2006,12,15,00,27,8.10
2006,12,15,00,28,8.10
2006,12,15,00,29,8.10
2006,12,15,00,30,8.20
2006,12,15,00,31,8.20
2006,12,15,00,32,8.20
2006,12,15,00,33,8.20
2006,12,15,00,34,8.20
2006,12,15,00,35,8.10
2006,12,15,00,36,8.10
2006,12,15,00,37,8.00
2006,12,15,00,38,7.90
2006,12,15,00,39,7.80
2006,12,15,00,40,7.80
2006,12,15,00,41,7.70
2006,12,15,00,42,7.60
2006,12,15,00,43,7.60
2006,12,15,00,44,7.50
2006,12,15,00,45,7.50
2006,12,15,00,46,7.40
2006,12,15,00,47,7.30
2006,12,15,00,48,7.20
2006,12,15,00,49,7.10
2006,12,15,00,50,7.00
2006,12,15,00,51,6.90
2006,12,15,00,52,6.80
2006,12,15,00,53,6.60
2006,12,15,00,54,6.50
2006,12,15,00,55,6.30
2006,12,15,00,56,6.20
2006,12,15,00,57,6.10
2006,12,15,00,58,6.00
2006,12,15,00,59,5.90
2006,12,15,01,00,5.80
2006,12,15,01,01,5.70
2006,12,15,01,02,5.70
2006,12,15,01,03,5.60
2006,12,15,01,04,5.60
2006,12,15,01,05,5.50
2006,12,15,01,06,5.50
2006,12,15,01,07,5.40
2006,12,15,01,08,5.40
2006,12,15,01,09,5.40
2006,12,15,01,10,5.40
2006,12,15,01,11,5.40
2006,12,15,01,12,5.30
2006,12,15,01,13,5.30
2006,12,15,01,14,5.30
2006,12,15,01,15,5.30
2006,12,15,01,16,5.30
2006,12,15,01,17,5.30
2006,12,15,01,18,5.30
2006,12,15,01,19,5.30
2006,12,15,01,20,5.30
2006,12,15,01,21,5.30
2006,12,15,01,22,5.30
2006,12,15,01,23,5.30
2006,12,15,01,24,5.30
2006,12,15,01,25,5.30
2006,12,15,01,26,5.30
2006,12,15,01,27,5.30
2006,12,15,01,28,5.30
2006,12,15,01,29,5.30
2006,12,15,01,30,5.30
2006,12,15,01,31,5.30
2006,12,15,01,32,5.30
2006,12,15,01,33,5.30
2006,12,15,01,34,5.20
2006,12,15,01,35,5.10
2006,12,15,01,36,5.10
2006,12,15,01,37,5.10
2006,12,15,01,38,5.10
2006,12,15,01,39,5.10
2006,12,15,01,40,5.10
2006,12,15,01,41,5.10
2006,12,15,01,42,5.00
2006,12,15,01,43,5.00
2006,12,15,01,44,5.00
2006,12,15,01,45,5.00
2006,12,15,01,46,5.00
2006,12,15,01,47,5.10
2006,12,15,01,48,5.10
2006,12,15,01,49,5.10
2006,12,15,01,50,5.10
2006,12,15,01,51,5.10
2006,12,15,01,52,5.10
2006,12,15,01,53,5.10
2006,12,15,01,54,5.10
2006,12,15,01,55,5.10
2006,12,15,01,56,5.10
2006,12,15,01,57,5.10
2006,12,15,01,58,5.10
2006,12,15,01,59,5.20
2006,12,15,02,00,5.20
2006,12,15,02,01,5.20
2006,12,15,02,02,5.20
2006,12,15,02,03,5.10
2006,12,15,02,04,5.10
2006,12,15,02,05,5.10
2006,12,15,02,06,5.10
2006,12,15,02,07,5.10
2006,12,15,02,08,5.20
2006,12,15,02,09,5.20
2006,12,15,02,10,5.20
2006,12,15,02,11,5.20
2006,12,15,02,12,5.20
2006,12,15,02,13,5.20
2006,12,15,02,14,5.20
2006,12,15,02,15,5.10
2006,12,15,02,16,5.10
2006,12,15,02,17,5.10
2006,12,15,02,18,5.20
2006,12,15,02,19,5.20
2006,12,15,02,20,5.20
2006,12,15,02,21,5.20
2006,12,15,02,22,5.10
2006,12,15,02,23,5.10
2006,12,15,02,24,5.10
2006,12,15,02,25,5.10
2006,12,15,02,26,5.10
2006,12,15,02,27,5.10
2006,12,15,02,28,5.10
2006,12,15,02,29,5.10
2006,12,15,02,30,5.10
2006,12,15,02,31,5.10
2006,12,15,02,32,5.10
2006,12,15,02,33,5.20
2006,12,15,02,34,5.30
2006,12,15,02,35,5.30
2006,12,15,11,23,5.70
2006,12,15,11,24,5.70
2006,12,15,11,25,5.80
2006,12,15,11,26,5.80
2006,12,15,11,27,5.80
2006,12,15,11,28,5.90
2006,12,15,11,29,5.90
2006,12,15,11,30,6.00
2006,12,15,11,31,6.00
2006,12,15,11,32,6.00
2006,12,15,11,33,6.00
2006,12,15,11,34,6.00
2006,12,15,11,35,6.10
2006,12,15,11,36,6.10
2006,12,15,11,37,6.10
2006,12,15,11,38,6.00
2006,12,15,11,39,6.10
2006,12,15,11,40,6.10
2006,12,15,11,41,6.10
2006,12,15,11,42,6.10
2006,12,15,11,43,6.10
2006,12,15,11,44,6.10
2006,12,15,11,45,6.10
2006,12,15,11,46,6.10
2006,12,15,11,47,6.10
2006,12,15,11,48,6.10
2006,12,15,11,49,6.10
2006,12,15,11,50,6.10
2006,12,15,11,51,6.20
2006,12,15,11,52,6.20
2006,12,15,11,53,6.20
2006,12,15,11,54,6.20
2006,12,15,11,55,6.20
2006,12,15,11,56,6.30
2006,12,15,11,57,6.30
2006,12,15,11,58,6.40
2006,12,15,11,59,6.40
2006,12,15,12,00,6.40
2006,12,15,12,01,6.40
2006,12,15,12,02,6.40
2006,12,15,12,03,6.40
2006,12,15,12,04,6.40
2006,12,15,12,05,6.30
2006,12,15,12,06,6.30
2006,12,15,12,07,6.30
2006,12,15,12,08,6.20
2006,12,15,12,09,6.20
2006,12,15,12,10,6.20
2006,12,15,12,11,6.20
2006,12,15,12,12,6.20
2006,12,15,12,13,6.20
2006,12,15,12,14,6.20
2006,12,15,12,15,6.20
2006,12,15,12,16,6.20
2006,12,15,12,17,6.20
2006,12,15,12,18,6.30
2006,12,15,12,19,6.30
2006,12,15,12,20,6.40
2006,12,15,12,21,6.40
2006,12,15,12,22,6.40
2006,12,15,12,23,6.40
2006,12,15,12,24,6.40
2006,12,15,12,25,6.40
2006,12,15,12,26,6.40
2006,12,15,12,27,6.40
2006,12,15,12,28,6.40
2006,12,15,12,29,6.40
2006,12,15,12,30,6.40
2006,12,15,12,31,6.40
2006,12,15,12,32,6.40
2006,12,15,12,33,6.40
2006,12,15,12,34,6.40
2006,12,15,12,35,6.50
2006,12,15,12,36,6.60
2006,12,15,12,37,6.60
2006,12,15,12,38,6.60
2006,12,15,12,39,6.60
2006,12,15,12,40,6.60
2006,12,15,12,41,6.60
2006,12,15,12,42,6.60
2006,12,15,12,43,6.60
2006,12,15,12,44,6.60
2006,12,15,12,45,6.60
2006,12,15,12,46,6.60
2006,12,15,12,47,6.60
2006,12,15,12,48,6.60
2006,12,15,12,49,6.60
2006,12,15,12,50,6.60
2006,12,15,12,51,6.60
2006,12,15,12,52,6.70
2006,12,15,12,53,6.70
2006,12,15,12,54,6.70
2006,12,15,12,55,6.70
2006,12,15,12,56,6.70
2006,12,15,12,57,6.60
2006,12,15,12,58,6.60
2006,12,15,12,59,6.60
2006,12,15,13,00,6.60
2006,12,15,13,01,6.60
2006,12,15,13,02,6.60
2006,12,15,13,03,6.60
2006,12,15,13,04,6.60
2006,12,15,13,05,6.60
2006,12,15,13,06,6.60
2006,12,15,13,07,6.60
2006,12,15,13,08,6.60
2006,12,15,13,09,6.60
2006,12,15,13,10,6.60
2006,12,15,13,11,6.60
2006,12,15,13,12,6.60
2006,12,15,13,13,6.60
2006,12,15,13,14,6.60
2006,12,15,13,15,6.70
2006,12,15,13,16,6.70
2006,12,15,13,17,6.70
2006,12,15,13,18,6.70
2006,12,15,13,19,6.70
2006,12,15,13,20,6.70
2006,12,15,13,21,6.70
2006,12,15,13,22,6.70
2006,12,15,13,23,6.80
2006,12,15,13,24,6.80
2006,12,15,13,25,6.80
2006,12,15,13,26,6.80
2006,12,15,13,27,6.80
2006,12,15,13,28,6.80
2006,12,15,13,29,6.80
2006,12,15,13,30,6.80
2006,12,15,13,31,6.80
2006,12,15,13,32,6.80
2006,12,15,13,33,6.80
2006,12,15,13,34,6.80
2006,12,15,13,35,6.70
2006,12,15,13,36,6.70
2006,12,15,13,37,6.60
2006,12,15,13,38,6.60
2006,12,15,13,39,6.60
2006,12,15,13,40,6.50
2006,12,15,13,41,6.40
2006,12,15,13,42,6.40
2006,12,15,13,43,6.40
2006,12,15,13,44,6.40
2006,12,15,13,45,6.40
2006,12,15,13,46,6.30
2006,12,15,13,47,6.30
2006,12,15,13,48,6.30
2006,12,15,13,49,6.20
2006,12,15,13,50,6.20
2006,12,15,13,51,6.20
2006,12,15,13,52,6.20
2006,12,15,13,53,6.20
2006,12,15,13,54,6.20
2006,12,15,13,55,6.10
2006,12,15,13,56,6.10
2006,12,15,13,57,6.10
2006,12,15,13,58,6.00
2006,12,15,13,59,6.00
2006,12,15,14,00,5.90
2006,12,15,14,01,5.90
2006,12,15,14,02,5.90
2006,12,15,14,03,5.80
2006,12,15,14,04,5.70
2006,12,15,14,05,5.70
2006,12,15,14,06,5.70
2006,12,15,14,07,5.60
2006,12,15,14,08,5.50
2006,12,15,14,09,5.50
2006,12,15,14,10,5.40
2006,12,15,14,11,5.30
2006,12,15,14,12,5.30
2006,12,15,14,13,5.30
2006,12,15,14,14,5.30
2006,12,15,14,15,5.30
2006,12,15,14,16,5.30
2006,12,15,14,17,5.30
2006,12,15,14,18,5.30
2006,12,15,14,19,5.30
2006,12,15,14,20,5.30
2006,12,15,14,21,5.30
2006,12,15,14,22,5.30
2006,12,15,14,23,5.30
2006,12,15,14,24,5.40
2006,12,15,14,25,5.30
2006,12,15,14,26,5.30
2006,12,15,14,27,5.40
2006,12,15,14,28,5.40
2006,12,15,14,29,5.40
2006,12,15,14,30,5.40
2006,12,15,14,31,5.40
2006,12,15,14,32,5.40
2006,12,15,14,33,5.40
2006,12,15,14,34,5.40
2006,12,15,14,35,5.40
2006,12,15,14,36,5.40
2006,12,15,14,37,5.40
2006,12,15,14,38,5.30
2006,12,15,14,39,5.30
2006,12,15,14,40,5.30
2006,12,15,14,41,5.30
2006,12,15,14,42,5.30
2006,12,15,14,43,5.30
2006,12,15,14,44,5.30
2006,12,15,14,45,5.30
2006,12,15,14,46,5.30
2006,12,15,14,47,5.30
2006,12,15,14,48,5.30
2006,12,15,14,49,5.30
2006,12,15,14,50,5.30
2006,12,15,14,51,5.30
2006,12,15,14,52,5.30
2006,12,15,14,53,5.30
2006,12,15,14,54,5.30
2006,12,15,14,55,5.30
2006,12,15,14,56,5.20
2006,12,15,14,57,5.20
2006,12,15,14,58,5.20
2006,12,15,14,59,5.20
2006,12,15,15,00,5.10
2006,12,15,15,01,5.10
2006,12,15,15,02,5.10
2006,12,15,15,03,5.10
2006,12,15,15,04,5.10
2006,12,15,15,05,5.10
2006,12,15,15,06,5.10
2006,12,15,15,07,5.10
2006,12,15,15,08,5.10
2006,12,15,15,09,5.10
2006,12,15,15,10,5.00
2006,12,15,15,11,4.90
2006,12,15,15,12,4.90
2006,12,15,15,13,4.90
2006,12,15,15,14,4.90
2006,12,15,15,15,4.90
2006,12,15,15,16,4.80
2006,12,15,15,17,4.80
2006,12,15,15,18,4.80
2006,12,15,15,19,4.70
2006,12,15,15,20,4.70
2006,12,15,15,21,4.60
2006,12,15,15,22,4.60
2006,12,15,15,23,4.60
2006,12,15,15,24,4.50
2006,12,15,15,25,4.40
2006,12,15,15,26,4.40
2006,12,15,15,27,4.40
2006,12,15,15,28,4.30
2006,12,15,15,29,4.30
2006,12,15,15,30,4.30
2006,12,15,15,31,4.20
2006,12,15,15,32,4.20
2006,12,15,15,33,4.20
2006,12,15,15,34,4.20
2006,12,15,15,35,4.20
2006,12,15,15,36,4.20
2006,12,15,15,37,4.20
2006,12,15,15,38,4.20
2006,12,15,15,39,4.20
2006,12,15,15,40,4.10
2006,12,15,15,41,4.10
2006,12,15,15,42,4.10
2006,12,15,15,43,4.10
2006,12,15,15,44,4.10
2006,12,15,15,45,4.10
2006,12,15,15,46,4.10
2006,12,15,15,47,4.10
2006,12,15,15,48,4.10
2006,12,15,15,49,4.10
2006,12,15,15,50,4.10
2006,12,15,15,51,4.10
2006,12,15,15,52,4.10
2006,12,15,15,53,4.10
2006,12,15,15,54,4.10
2006,12,15,15,55,4.10
2006,12,15,15,56,4.10
2006,12,15,15,57,4.10
2006,12,15,15,58,4.10
2006,12,15,15,59,4.00
2006,12,15,16,00,4.00
2006,12,15,16,01,4.00
2006,12,15,16,02,4.00
2006,12,15,16,03,4.00
2006,12,15,16,04,4.00
2006,12,15,16,05,4.00
2006,12,15,16,06,4.00
2006,12,15,16,07,4.00
2006,12,15,16,08,4.00
2006,12,15,16,09,4.00
2006,12,15,16,10,4.00
2006,12,15,16,11,4.00
2006,12,15,16,12,4.00
2006,12,15,16,13,4.00
2006,12,15,16,14,3.90
2006,12,15,16,15,3.90
2006,12,15,16,16,3.90
2006,12,15,16,17,3.90
2006,12,15,16,18,3.90
2006,12,15,16,19,3.90
2006,12,15,16,20,3.90
2006,12,15,16,21,3.90
2006,12,15,16,22,3.90
2006,12,15,16,23,3.80
2006,12,15,16,24,3.80
2006,12,15,16,25,3.80
2006,12,15,16,26,3.80
2006,12,15,16,27,3.80
2006,12,15,16,28,3.80
2006,12,15,16,29,3.80
2006,12,15,16,30,3.80
2006,12,15,16,31,3.80
2006,12,15,16,32,3.80
2006,12,15,16,33,3.80
2006,12,15,16,34,3.80
2006,12,15,16,35,3.80
2006,12,15,16,36,3.80
2006,12,15,16,37,3.80
2006,12,15,16,38,3.80
2006,12,15,16,39,3.80
2006,12,15,16,40,3.80
2006,12,15,16,41,3.80
2006,12,15,16,42,3.80
2006,12,15,16,43,3.80
2006,12,15,16,44,3.80
2006,12,15,16,45,3.80
2006,12,15,16,46,3.80
2006,12,15,16,47,3.80
2006,12,15,16,48,3.80
2006,12,15,16,49,3.80
2006,12,15,16,50,3.80
2006,12,15,16,51,3.80
2006,12,15,16,52,3.80
2006,12,15,16,53,3.80
2006,12,15,16,54,3.80
2006,12,15,16,55,3.80
2006,12,15,16,56,3.80
2006,12,15,16,57,3.80
2006,12,15,16,58,3.80
2006,12,15,16,59,3.80
2006,12,15,17,00,3.80
2006,12,15,17,01,3.70
2006,12,15,17,02,3.70
2006,12,15,17,03,3.70
2006,12,15,17,04,3.60
2006,12,15,17,05,3.60
2006,12,15,17,06,3.60
2006,12,15,17,07,3.60
2006,12,15,17,08,3.50
2006,12,15,17,09,3.50
2006,12,15,17,10,3.50
2006,12,15,17,11,3.40
2006,12,15,17,12,3.40
2006,12,15,17,13,3.40
2006,12,15,17,14,3.30
2006,12,15,17,15,3.30
2006,12,15,17,16,3.30
2006,12,15,17,17,3.30
2006,12,15,17,18,3.20
2006,12,15,17,19,3.20
2006,12,15,17,20,3.20
2006,12,15,17,21,3.10
2006,12,15,17,22,3.10
2006,12,15,17,23,3.10
2006,12,15,17,24,3.10
2006,12,15,17,25,3.10
2006,12,15,17,26,3.10
2006,12,15,17,27,3.10
2006,12,15,17,28,3.10
2006,12,15,17,29,3.10
2006,12,15,17,30,3.10
2006,12,15,17,31,3.10
2006,12,15,17,32,3.10
2006,12,15,17,33,3.10
2006,12,15,17,34,3.00
2006,12,15,17,35,2.90
2006,12,15,17,36,2.90
2006,12,15,17,37,2.90
2006,12,15,17,38,2.90
2006,12,15,17,39,2.90
2006,12,15,17,40,2.90
2006,12,15,17,41,2.90
2006,12,15,17,42,2.90
2006,12,15,17,43,2.90
2006,12,15,17,44,2.90
2006,12,15,17,45,2.90
2006,12,15,17,46,2.90
2006,12,15,17,47,2.90
2006,12,15,17,48,2.90
2006,12,15,17,49,2.90
2006,12,15,17,50,2.90
2006,12,15,17,51,2.90
2006,12,15,17,52,2.90
2006,12,15,17,53,2.90
2006,12,15,17,54,2.90
2006,12,15,17,55,2.90
2006,12,15,17,56,2.90
2006,12,15,17,57,2.90
2006,12,15,17,58,2.80
2006,12,15,17,59,2.80
2006,12,15,18,00,2.80
2006,12,15,18,01,2.80
2006,12,15,18,02,2.80
2006,12,15,18,03,2.80
2006,12,15,18,04,2.80
2006,12,15,18,05,2.70
2006,12,15,18,06,2.70
2006,12,15,18,07,2.70
2006,12,15,18,08,2.70
2006,12,15,18,09,2.70
2006,12,15,18,10,2.70
2006,12,15,18,11,2.70
2006,12,15,18,12,2.70
2006,12,15,18,13,2.70
2006,12,15,18,14,2.70
2006,12,15,18,15,2.70
2006,12,15,18,16,2.70
2006,12,15,18,17,2.70
2006,12,15,18,18,2.70
2006,12,15,18,19,2.70
2006,12,15,18,20,2.70
2006,12,15,18,21,2.70
2006,12,15,18,22,2.70
2006,12,15,18,23,2.70
2006,12,15,18,24,2.70
2006,12,15,18,25,2.70
2006,12,15,18,26,2.70
2006,12,15,18,27,2.70
2006,12,15,18,28,2.70
2006,12,15,18,29,2.70
2006,12,15,18,30,2.70
2006,12,15,18,31,2.70
2006,12,15,18,32,2.70
2006,12,15,18,33,2.60
2006,12,15,18,34,2.60
2006,12,15,18,35,2.60
2006,12,15,18,36,2.60
2006,12,15,18,37,2.60
2006,12,15,18,38,2.60
2006,12,15,18,39,2.60
2006,12,15,18,40,2.60
2006,12,15,18,41,2.60
2006,12,15,18,42,2.60
2006,12,15,18,43,2.60
2006,12,15,18,44,2.60
2006,12,15,18,45,2.60
2006,12,15,18,46,2.60
2006,12,15,18,47,2.50
2006,12,15,18,48,2.50
2006,12,15,18,49,2.40
2006,12,15,18,50,2.40
2006,12,15,18,51,2.40
2006,12,15,18,52,2.40
2006,12,15,18,53,2.30
2006,12,15,18,54,2.30
2006,12,15,18,55,2.30
2006,12,15,18,56,2.20
2006,12,15,18,57,2.20
2006,12,15,18,58,2.20
2006,12,15,18,59,2.20
2006,12,15,19,00,2.20
2006,12,15,19,01,2.20
2006,12,15,19,02,2.20
2006,12,15,19,03,2.20
2006,12,15,19,04,2.20
2006,12,15,19,05,2.10
2006,12,15,19,06,2.10
2006,12,15,19,07,2.10
2006,12,15,19,08,2.10
2006,12,15,19,09,2.10
2006,12,15,19,10,2.10
2006,12,15,19,11,2.20
2006,12,15,19,12,2.20
2006,12,15,19,13,2.30
2006,12,15,19,14,2.40
2006,12,15,19,15,2.50
2006,12,15,19,16,2.60
2006,12,15,19,17,2.70
2006,12,15,19,18,2.70
2006,12,15,19,19,2.80
2006,12,15,19,20,2.90
2006,12,15,19,21,2.90
2006,12,15,19,22,2.90
2006,12,15,19,23,2.90
2006,12,15,19,24,3.00
2006,12,15,19,25,3.00
2006,12,15,19,26,2.90
2006,12,15,19,27,2.90
2006,12,15,19,28,2.90
2006,12,15,19,29,2.90
2006,12,15,19,30,2.90
2006,12,15,19,31,2.90
2006,12,15,19,32,2.90
2006,12,15,19,33,2.80
2006,12,15,19,34,2.80
2006,12,15,19,35,2.70
2006,12,15,19,36,2.70
2006,12,15,19,37,2.70
2006,12,15,19,38,2.70
2006,12,15,19,39,2.70
2006,12,15,19,40,2.70
2006,12,15,19,41,2.70
2006,12,15,19,42,2.70
2006,12,15,19,43,2.70
2006,12,15,19,44,2.70
2006,12,15,19,45,2.70
2006,12,15,19,46,2.80
2006,12,15,19,47,2.80
2006,12,15,19,48,2.90
2006,12,15,19,49,2.90
2006,12,15,19,50,2.90
2006,12,15,19,51,2.90
2006,12,15,19,52,2.90
2006,12,15,19,53,2.90
2006,12,15,19,54,3.00
2006,12,15,19,55,3.10
2006,12,15,19,56,3.10
2006,12,15,19,57,3.00
2006,12,15,19,58,3.10
2006,12,15,19,59,3.10
2006,12,15,20,00,3.10
2006,12,15,20,01,3.10
2006,12,15,20,02,3.10
2006,12,15,20,03,3.10
2006,12,15,20,04,3.10
2006,12,15,20,05,3.10
2006,12,15,20,06,3.10
2006,12,15,20,07,3.10
2006,12,15,20,08,3.10
2006,12,15,20,09,3.10
2006,12,15,20,10,3.10
2006,12,15,20,11,3.10
2006,12,15,20,12,3.10
2006,12,15,20,13,3.10
2006,12,15,20,14,3.10
2006,12,15,20,15,3.00
2006,12,15,20,16,2.90
2006,12,15,20,17,2.90
2006,12,15,20,18,2.90
2006,12,15,20,19,2.90
2006,12,15,20,20,2.90
2006,12,15,20,21,3.00
2006,12,15,20,22,3.10
2006,12,15,20,23,3.10
2006,12,15,20,24,3.10
2006,12,15,20,25,3.10
2006,12,15,20,26,3.10
2006,12,15,20,27,3.10
2006,12,15,20,28,3.20
2006,12,15,20,29,3.20
2006,12,15,20,30,3.20
2006,12,15,20,31,3.20
2006,12,15,20,32,3.20
2006,12,15,20,33,3.20
2006,12,15,20,34,3.10
2006,12,15,20,35,3.10
2006,12,15,20,36,3.10
2006,12,15,20,37,3.10
2006,12,15,20,38,3.10
2006,12,15,20,39,3.10
2006,12,15,20,40,3.10
2006,12,15,20,41,3.10
2006,12,15,20,42,3.10
2006,12,15,20,43,3.10
2006,12,15,20,44,3.00
2006,12,15,20,45,2.90
2006,12,15,20,46,2.90
2006,12,15,20,47,2.90
2006,12,15,20,48,2.90
2006,12,15,20,49,2.90
2006,12,15,20,50,2.90
2006,12,15,20,51,2.90
2006,12,15,20,52,2.90
2006,12,15,20,53,2.90
2006,12,15,20,54,2.80
2006,12,15,20,55,2.80
2006,12,15,20,56,2.80
2006,12,15,20,57,2.80
2006,12,15,20,58,2.80
2006,12,15,20,59,2.80
2006,12,15,21,00,2.70
2006,12,15,21,01,2.70
2006,12,15,21,02,2.70
2006,12,15,21,03,2.70
2006,12,15,21,04,2.70
2006,12,15,21,05,2.70
2006,12,15,21,06,2.70
2006,12,15,21,07,2.70
2006,12,15,21,08,2.70
2006,12,15,21,09,2.70
2006,12,15,21,10,2.70
2006,12,15,21,11,2.70
2006,12,15,21,12,2.70
2006,12,15,21,13,2.70
2006,12,15,21,14,2.70
2006,12,15,21,15,2.70
2006,12,15,21,16,2.60
2006,12,15,21,17,2.60
2006,12,15,21,18,2.60
2006,12,15,21,19,2.60
2006,12,15,21,20,2.60
2006,12,15,21,21,2.50
2006,12,15,21,22,2.50
2006,12,15,21,23,2.50
2006,12,15,21,24,2.50
2006,12,15,21,25,2.40
2006,12,15,21,26,2.40
2006,12,15,21,27,2.40
2006,12,15,21,28,2.40
2006,12,15,21,29,2.40
2006,12,15,21,30,2.30
2006,12,15,21,31,2.30
2006,12,15,21,32,2.30
2006,12,15,21,33,2.30
2006,12,15,21,34,2.30
2006,12,15,21,35,2.30
2006,12,15,21,36,2.30
2006,12,15,21,37,2.30
2006,12,15,21,38,2.30
2006,12,15,21,39,2.40
2006,12,15,21,40,2.40
2006,12,15,21,41,2.40
2006,12,15,21,42,2.40
2006,12,15,21,43,2.40
2006,12,15,21,44,2.40
2006,12,15,21,45,2.40
2006,12,15,21,46,2.40
2006,12,15,21,47,2.40
2006,12,15,21,48,2.40
2006,12,15,21,49,2.50
2006,12,15,21,50,2.50
2006,12,15,21,51,2.60
2006,12,15,21,52,2.60
2006,12,15,21,53,2.70
2006,12,15,21,54,2.70
2006,12,15,21,55,2.70
2006,12,15,21,56,2.70
2006,12,15,21,57,2.70
2006,12,15,21,58,2.70
2006,12,15,21,59,2.80
2006,12,15,22,00,2.80
2006,12,15,22,01,2.80
2006,12,15,22,02,2.80
2006,12,15,22,03,2.80
2006,12,15,22,04,2.80
2006,12,15,22,05,2.80
2006,12,15,22,06,2.80
2006,12,15,22,07,2.80
2006,12,15,22,08,2.80
2006,12,15,22,09,2.80
2006,12,15,22,10,2.80
2006,12,15,22,11,2.80
2006,12,15,22,12,2.80
2006,12,15,22,13,2.80
2006,12,15,22,14,2.90
2006,12,15,22,15,2.90
2006,12,15,22,16,2.90
2006,12,15,22,17,2.90
2006,12,15,22,18,2.90
2006,12,15,22,19,2.90
2006,12,15,22,20,3.00
2006,12,15,22,21,3.10
2006,12,15,22,22,3.10
2006,12,15,22,23,3.10
2006,12,15,22,24,3.10
2006,12,15,22,25,3.10
2006,12,15,22,26,3.10
2006,12,15,22,27,3.10
2006,12,15,22,28,3.10
2006,12,15,22,29,3.20
2006,12,15,22,30,3.20
2006,12,15,22,31,3.20
2006,12,15,22,32,3.20
2006,12,15,22,33,3.20
2006,12,15,22,34,3.30
2006,12,15,22,35,3.30
2006,12,15,22,36,3.30
2006,12,15,22,37,3.20
2006,12,15,22,38,3.20
2006,12,15,22,39,3.20
2006,12,15,22,40,3.20
2006,12,15,22,41,3.20
2006,12,15,22,42,3.20
2006,12,15,22,43,3.20
2006,12,15,22,44,3.20
2006,12,15,22,45,3.20
2006,12,15,22,46,3.20
2006,12,15,22,47,3.20
2006,12,15,22,48,3.20
2006,12,15,22,49,3.20
2006,12,15,22,50,3.20
2006,12,15,22,51,3.20
2006,12,15,22,52,3.20
2006,12,15,22,53,3.20
2006,12,15,22,54,3.20
2006,12,15,22,55,3.20
2006,12,15,22,56,3.20
2006,12,15,22,57,3.20
2006,12,15,22,58,3.20
2006,12,15,22,59,3.20
2006,12,15,23,00,3.20
2006,12,15,23,01,3.20
2006,12,15,23,02,3.20
2006,12,15,23,03,3.20
2006,12,15,23,04,3.20
2006,12,15,23,05,3.20
2006,12,15,23,06,3.20
2006,12,15,23,07,3.20
2006,12,15,23,08,3.20
2006,12,15,23,09,3.20
2006,12,15,23,10,3.20
2006,12,15,23,11,3.20
2006,12,15,23,12,3.20
2006,12,15,23,13,3.20
2006,12,15,23,14,3.20
2006,12,15,23,15,3.20
2006,12,15,23,16,3.20
2006,12,15,23,17,3.20
2006,12,15,23,18,3.20
2006,12,15,23,19,3.20
2006,12,15,23,20,3.30
2006,12,15,23,21,3.30
2006,12,15,23,22,3.30
2006,12,15,23,23,3.30
2006,12,15,23,24,3.30
2006,12,15,23,25,3.30
2006,12,15,23,26,3.30
2006,12,15,23,27,3.30
2006,12,15,23,28,3.30
2006,12,15,23,29,3.30
2006,12,15,23,30,3.30
2006,12,15,23,31,3.30
2006,12,15,23,32,3.30
2006,12,15,23,33,3.30
2006,12,15,23,34,3.50
2006,12,15,23,35,3.50
2006,12,15,23,36,3.60
2006,12,15,23,37,3.60
2006,12,15,23,38,3.70
2006,12,15,23,39,3.80
2006,12,15,23,40,3.90
2006,12,15,23,41,4.00
2006,12,15,23,42,4.00
2006,12,15,23,43,4.00
2006,12,15,23,44,4.10
2006,12,15,23,45,4.10
2006,12,15,23,46,4.20
2006,12,15,23,47,4.20
2006,12,15,23,48,4.20
2006,12,15,23,49,4.20
2006,12,15,23,50,4.30
2006,12,15,23,51,4.30
2006,12,15,23,52,4.30
2006,12,15,23,53,4.30
2006,12,15,23,54,4.30
2006,12,15,23,55,4.30
2006,12,15,23,56,4.30
2006,12,15,23,57,4.30
2006,12,15,23,58,4.30
2006,12,15,23,59,4.30
